GEFSMW_con_probscp_354.txt.gz
Probability
4 3 2 3 4 5 7 8 8 8 8 7 7 7 6 6 7 7 6 5 5 4 4 6 7 7 6 6 6 7 8 6 4 3 3 2 1 1 2 3 3 3 3
7 7 6 5 5 6 7 8 8 9 9 8 7 7 6 5 5 6 6 5 4 3 3 5 7 6 6 6 6 8 8 7 5 4 3 2 1 1 1 3 3 3 3
9 10 9 7 7 7 7 7 8 10 11 10 7 6 5 4 4 5 6 6 4 2 2 4 5 5 5 5 7 9 9 8 7 5 4 4 3 1 2 4 4 3 3
8 9 9 9 10 8 6 6 7 10 12 11 9 7 6 4 4 4 5 7 5 3 2 3 5 5 5 6 7 8 9 9 7 6 6 6 5 3 4 5 5 4 3
7 7 8 10 11 11 9 10 11 13 15 14 12 11 10 7 6 5 6 7 6 5 4 5 7 8 8 8 8 8 9 9 7 5 5 6 6 5 5 4 4 3 3
8 8 9 10 11 12 12 14 18 19 19 18 15 14 14 13 10 7 7 8 7 7 8 9 11 12 12 12 11 11 11 11 9 6 5 6 6 6 5 3 2 2 2
11 10 10 10 11 11 12 15 18 21 23 23 21 18 17 15 11 9 8 9 9 11 12 12 13 14 14 14 14 14 14 13 12 10 8 7 8 8 6 4 2 1 1
12 11 11 12 11 11 11 12 14 18 23 26 26 24 20 15 12 11 12 12 12 14 15 15 15 14 14 15 16 17 16 15 15 13 11 10 9 9 8 5 2 1 0
10 9 10 11 11 11 11 11 13 18 21 23 24 24 22 18 16 16 16 16 16 16 16 17 17 15 14 16 18 18 16 16 16 15 14 13 12 10 8 5 3 3 3
9 8 9 10 10 11 12 14 16 19 19 18 18 20 21 21 21 21 20 20 18 17 17 18 17 16 14 16 18 17 15 15 15 15 14 13 12 10 7 6 6 7 8
11 11 11 11 10 12 15 17 18 19 19 18 16 16 18 21 23 24 25 24 21 18 18 18 18 17 16 16 17 17 15 14 14 14 13 11 10 9 8 8 9 10 12
16 17 17 16 14 14 16 18 19 19 19 19 19 18 18 21 25 26 26 25 23 20 19 19 19 20 20 19 18 17 16 15 15 15 13 11 10 10 11 12 11 11 12
19 22 26 24 20 18 17 17 18 19 19 19 21 22 22 22 24 25 25 24 22 20 20 21 20 20 20 19 17 16 16 16 16 16 15 13 12 13 15 14 13 13 12
17 21 29 31 26 22 20 17 17 20 20 19 20 21 21 22 24 24 23 22 21 21 21 19 18 18 17 16 14 13 13 13 14 15 16 15 15 15 16 16 15 14 14
15 18 27 33 30 25 23 20 20 22 22 19 18 18 19 22 24 24 23 22 22 21 20 17 16 15 13 12 12 12 12 12 13 14 15 16 15 13 13 13 14 15 15
17 18 24 30 28 23 23 23 24 24 23 21 20 21 22 24 27 27 26 24 22 21 18 16 14 13 10 9 9 9 10 12 14 14 15 14 13 11 9 9 9 10 10
20 20 22 26 25 22 22 24 24 23 22 23 24 27 27 27 29 31 31 28 24 21 18 15 13 12 10 7 5 6 9 11 12 14 16 15 14 13 12 8 6 5 6
20 19 20 23 24 24 25 27 25 23 22 22 25 28 30 28 29 32 34 31 26 22 19 16 14 13 10 7 4 5 8 10 11 13 17 19 18 16 13 10 8 8 8
17 18 19 22 25 27 29 30 28 24 21 20 22 24 26 28 30 33 33 31 27 23 20 17 15 13 10 7 4 5 8 11 13 16 18 19 17 13 9 9 11 12 12
16 17 20 23 27 29 30 30 28 22 18 19 21 23 24 27 31 33 32 31 29 24 20 17 14 11 10 7 4 4 9 14 17 21 22 17 10 6 4 7 10 12 12
18 19 21 22 25 27 29 29 26 20 16 17 21 24 25 25 27 28 29 30 29 26 22 19 16 13 12 8 4 4 9 15 20 24 24 17 7 2 1 3 7 8 9
19 20 21 21 22 24 28 29 26 20 18 18 21 22 22 22 22 22 24 26 27 26 23 21 20 19 16 11 5 2 5 12 19 23 22 15 6 1 0 1 3 3 4
16 18 21 22 22 23 25 26 24 21 20 22 21 20 20 19 19 19 21 22 23 24 22 21 22 22 21 16 10 5 3 6 13 18 16 9 3 0 1 1 1 1 2
14 16 19 23 24 24 22 23 23 22 22 22 21 19 18 16 16 17 17 18 20 21 21 21 22 23 23 20 16 13 9 7 9 13 13 8 4 3 4 4 3 3 4
14 15 18 21 22 22 22 22 23 23 22 20 19 17 15 14 14 14 13 13 15 16 17 17 18 20 20 17 15 15 14 11 10 13 15 14 11 10 10 9 7 5 4
13 15 17 17 18 19 21 22 22 21 20 19 19 16 14 13 12 11 11 11 11 10 11 12 12 14 14 11 10 11 12 11 10 12 16 17 17 16 14 12 10 6 4

GEFSMW_con_probscp_360.txt.gz
Probability
8 10 12 16 19 23 25 26 25 24 21 20 17 13 10 8 7 9 11 10 9 9 11 12 14 16 17 17 14 12 12 12 12 11 7 4 3 4 5 6 7 8 8
9 12 15 17 19 22 25 25 25 24 24 24 22 18 13 9 6 7 10 11 10 9 10 14 15 16 16 16 15 14 13 12 12 11 8 5 3 3 3 4 6 8 8
12 15 18 19 20 22 24 24 25 26 28 28 25 19 14 11 9 9 12 15 15 13 13 16 18 16 15 15 15 14 13 11 11 10 9 7 4 2 1 3 5 8 10
15 16 19 21 22 23 24 26 28 30 30 29 26 20 16 15 16 16 18 21 20 19 17 18 19 18 15 15 14 13 12 11 10 10 9 8 5 2 1 3 6 9 12
15 16 20 24 24 22 24 29 34 36 34 31 28 23 19 18 20 21 23 24 24 23 21 20 20 19 17 17 16 14 13 11 10 9 9 8 6 4 3 4 5 8 10
13 15 22 27 27 23 24 30 36 39 38 34 29 24 21 19 20 23 26 26 25 24 24 23 22 21 20 19 18 17 15 12 9 9 9 8 8 8 7 5 5 8 9
12 16 25 31 30 27 27 32 35 37 38 36 31 27 24 21 22 25 27 26 25 25 25 25 24 24 24 23 21 19 17 14 11 10 9 9 10 10 10 8 8 8 8
13 17 24 29 31 30 30 34 36 37 37 37 36 33 29 26 27 29 28 27 26 27 28 27 26 26 26 25 23 21 19 18 14 11 11 11 12 12 12 13 13 10 8
16 18 22 27 30 30 31 35 41 42 40 39 39 37 34 32 34 34 31 29 29 29 30 30 29 28 27 27 26 24 23 23 19 15 14 14 15 15 15 16 16 14 10
19 20 23 26 28 28 29 35 43 45 44 42 40 38 39 38 38 37 34 31 30 30 30 32 32 31 29 28 27 27 27 27 23 19 17 17 17 18 18 18 18 16 14
21 22 24 26 28 28 29 35 41 44 44 43 41 41 43 44 42 40 37 34 32 31 32 33 32 31 31 30 28 27 28 28 26 21 17 16 18 19 19 19 19 18 17
19 21 23 27 30 32 34 37 40 41 43 44 42 40 42 44 43 41 39 38 36 34 33 31 29 30 30 30 28 26 26 27 27 24 20 19 19 20 19 18 19 19 19
16 20 27 34 39 42 42 41 42 42 43 44 41 37 38 40 41 40 39 38 37 34 30 28 27 28 29 29 28 26 26 27 27 26 24 23 23 22 19 17 18 20 20
18 24 35 45 50 53 52 48 44 43 45 45 41 37 35 36 37 36 35 35 34 30 27 26 27 28 28 26 26 26 27 26 25 24 24 23 23 21 18 16 18 21 21
22 30 41 49 53 55 56 51 45 43 43 44 41 37 36 35 34 34 34 35 34 29 26 27 27 27 26 23 22 22 23 23 22 21 21 20 17 16 13 12 15 19 20
24 32 43 48 48 50 50 48 44 41 41 41 38 36 35 34 32 32 34 37 36 31 27 28 29 27 23 19 15 15 17 19 20 20 21 19 14 11 9 8 9 12 14
26 33 41 45 45 44 43 43 41 40 41 41 39 37 35 34 32 32 33 36 37 35 32 31 31 28 23 16 10 10 13 16 19 20 21 18 15 13 12 10 9 10 10
30 34 37 40 41 41 41 41 40 40 42 44 44 42 39 37 37 36 35 37 39 39 39 37 34 31 24 14 8 7 10 14 17 19 19 18 16 15 15 14 14 15 15
34 34 33 34 38 41 42 42 40 40 42 44 44 43 41 40 41 39 38 39 40 41 41 40 38 34 25 15 7 6 9 12 15 17 18 17 14 12 12 15 17 18 19
35 33 30 30 35 39 40 39 38 39 40 41 41 39 37 38 39 38 39 39 39 38 38 39 39 36 28 17 9 7 10 14 15 18 19 16 12 8 8 13 17 17 17
31 30 30 31 33 36 36 36 37 38 39 39 37 35 34 35 36 36 38 39 38 36 35 35 36 36 30 20 11 7 11 16 18 19 21 18 12 6 5 10 15 15 12
26 26 30 34 34 34 33 35 38 39 40 40 38 36 35 35 35 36 36 37 37 34 33 32 32 33 31 24 13 6 7 14 19 21 22 19 12 5 2 5 9 9 6
25 25 28 33 35 33 31 33 36 38 41 43 42 39 37 36 35 35 33 33 33 32 31 30 29 29 29 27 19 8 4 7 14 19 18 14 8 3 1 2 3 4 4
25 25 27 30 31 30 29 30 33 36 40 43 43 40 36 34 33 33 30 28 29 29 27 27 25 24 24 25 20 13 7 5 9 14 14 10 6 4 4 4 3 3 5
25 25 26 27 26 26 27 28 30 34 37 39 39 36 32 29 30 28 25 23 23 22 20 20 20 18 17 16 15 13 10 8 8 11 14 13 10 10 11 10 8 7 7
26 26 26 26 25 25 26 26 29 35 36 35 35 32 29 27 26 23 20 19 17 16 14 15 15 14 12 11 10 10 9 7 8 11 15 17 16 15 15 15 12 9 7

GEFSMW_con_probscp_366.txt.gz
Probability
1 3 8 11 10 10 8 5 5 6 6 6 5 4 3 2 1 1 0 1 4 6 6 5 4 4 5 5 2 1 1 1 1 1 0 1 1 1 0 0 0 0 0
3 5 10 12 12 12 11 9 7 7 7 7 5 5 4 3 2 2 1 2 4 6 7 6 5 6 8 7 5 3 2 2 3 3 2 1 0 0 0 0 0 0 0
7 10 13 15 16 16 15 12 9 8 8 8 8 7 7 6 4 3 3 3 4 7 8 8 8 10 12 12 8 6 5 5 5 5 4 1 0 0 0 0 0 0 0
12 12 15 18 21 20 18 13 10 9 8 9 10 10 9 8 6 4 4 4 5 8 10 9 9 10 12 12 9 7 6 6 6 6 5 3 1 0 0 0 0 0 0
15 14 15 19 22 23 20 15 11 9 8 9 10 10 9 9 7 6 6 6 7 9 11 10 8 8 9 9 8 7 6 5 5 5 5 4 3 1 1 0 0 0 0
19 17 15 17 22 25 23 17 13 11 10 11 11 11 9 7 6 7 8 9 10 11 13 13 11 10 9 8 7 7 6 6 6 5 5 5 4 3 2 1 0 0 0
20 18 14 13 18 22 22 18 15 14 14 13 13 12 10 8 6 7 10 12 13 14 16 16 16 15 13 10 9 8 7 7 6 5 5 6 6 5 3 2 1 0 0
18 15 11 9 11 16 18 16 14 13 13 13 13 12 12 11 9 9 11 13 14 15 16 19 19 18 17 15 13 11 9 8 7 7 8 8 7 6 4 3 2 1 0
13 11 9 8 9 12 15 15 13 12 12 12 12 12 13 12 11 11 12 12 13 13 15 19 19 17 16 16 15 14 12 9 9 10 9 7 7 6 4 3 3 2 1
10 10 10 11 12 13 14 15 15 15 14 14 13 13 13 13 12 12 12 11 11 12 13 15 16 15 15 14 14 13 12 10 9 9 7 6 5 5 3 3 3 3 3
9 11 13 15 17 16 14 16 19 19 18 17 15 14 13 13 12 11 9 8 9 10 10 11 13 14 15 14 14 13 12 10 9 8 6 4 4 3 3 2 2 3 3
9 12 15 17 19 17 15 18 21 22 21 19 17 16 14 12 11 9 6 6 7 8 9 11 12 14 14 14 13 13 13 12 11 9 7 5 4 3 3 3 2 2 2
11 13 15 17 18 17 16 19 22 23 22 20 20 19 17 13 11 10 8 7 6 7 8 10 11 12 13 13 12 12 13 13 12 11 10 8 5 4 4 3 3 2 2
14 15 14 14 14 15 17 20 22 22 21 21 22 22 19 14 12 12 11 9 7 6 7 8 8 10 11 11 11 11 12 13 13 13 12 10 9 6 5 4 3 4 4
18 16 13 12 12 14 18 20 21 19 19 20 20 19 17 14 12 12 11 9 7 6 6 6 7 8 10 10 9 9 11 12 13 13 12 12 11 9 6 5 4 4 5
20 17 13 13 14 16 19 20 18 16 16 16 16 16 15 14 13 12 10 8 7 6 6 7 7 8 9 8 7 7 9 11 13 13 12 11 10 9 7 5 4 4 5
18 17 16 16 17 19 20 19 17 16 15 15 15 15 16 16 16 14 11 8 7 7 8 8 9 9 8 7 5 4 6 9 12 12 12 11 10 9 8 6 4 4 4
15 16 17 18 18 19 20 18 16 16 17 17 17 17 18 20 20 18 14 11 9 9 8 9 9 9 8 6 4 3 5 7 10 11 11 11 10 9 8 6 5 4 4
13 14 16 17 16 15 17 17 15 15 16 17 18 20 21 23 23 21 18 15 13 11 9 8 8 7 7 6 4 3 5 7 9 10 10 10 9 8 7 6 6 6 6
15 15 16 16 14 13 16 17 16 15 16 17 18 20 22 24 24 22 21 19 17 15 13 10 9 8 7 6 5 3 5 7 9 9 9 8 8 6 4 5 6 7 7
17 16 16 15 13 13 16 19 18 17 17 18 18 21 24 24 23 21 21 20 18 17 16 14 13 12 10 8 6 3 3 6 8 9 9 8 6 3 2 2 4 6 6
17 17 17 16 14 14 16 19 19 18 18 19 20 23 25 24 22 19 18 18 17 16 15 15 14 14 13 11 7 3 2 3 6 8 8 8 6 2 0 0 2 3 3
17 17 17 16 15 14 16 17 19 20 19 18 19 20 21 21 19 16 15 16 16 15 14 13 13 13 14 12 9 5 2 1 3 4 5 6 5 2 0 0 0 1 1
19 19 18 17 16 14 14 16 18 20 18 15 15 16 16 16 15 14 14 14 14 13 13 12 12 12 13 13 11 8 5 3 3 3 3 3 3 3 2 2 1 1 2
21 20 18 17 16 14 13 14 16 17 15 11 11 12 13 14 14 13 12 10 9 9 9 9 9 10 11 11 11 10 8 5 4 5 5 4 5 5 7 6 3 2 3
20 20 18 17 17 15 13 13 15 16 13 10 9 10 12 14 14 13 10 8 6 5 5 5 6 6 7 9 10 9 8 6 4 5 7 7 7 7 9 8 6 4 5

GEFSMW_con_probscp_372.txt.gz
Probability
2 2 2 1 0 0 1 3 5 5 4 3 2 1 1 1 3 5 5 5 4 4 4 4 4 4 4 4 4 4 5 6 7 6 4 3 1 0 0 1 1 1 1
3 3 3 1 1 1 2 3 4 4 3 3 3 2 1 2 3 5 6 6 6 5 4 4 5 5 6 5 4 4 5 7 7 7 5 3 1 0 0 0 0 1 1
3 3 3 2 3 3 4 5 4 3 2 2 2 2 2 2 4 5 5 5 6 6 6 5 5 5 6 5 4 5 6 8 8 7 6 3 1 1 0 0 0 0 1
2 2 3 5 5 6 6 6 4 2 1 1 1 1 2 3 4 4 4 4 5 5 6 6 5 4 4 4 5 6 8 9 8 7 5 4 3 2 1 0 0 0 0
1 2 4 6 6 6 6 6 4 3 2 1 1 1 2 3 3 3 3 3 3 3 4 5 6 5 5 5 7 9 9 9 8 6 4 3 3 3 2 1 0 0 0
2 4 5 6 7 7 7 6 4 3 3 3 3 2 2 2 1 2 3 3 3 3 3 5 7 8 8 8 9 10 9 7 5 4 3 3 3 3 3 1 0 0 0
4 4 5 5 7 7 6 6 4 4 4 4 5 5 4 3 1 1 3 4 3 3 4 5 7 8 9 9 10 9 7 5 4 3 3 3 3 3 3 2 1 0 0
5 5 5 6 7 6 5 5 5 4 4 5 6 6 5 4 1 1 4 5 4 4 5 6 6 6 6 6 7 7 6 4 3 2 2 2 3 3 3 3 2 1 1
6 6 7 7 7 6 5 4 5 5 6 6 7 7 6 5 3 3 5 7 5 4 5 6 5 4 4 4 5 6 7 6 4 2 2 1 1 2 3 3 2 1 1
5 6 7 7 7 7 7 6 5 6 7 7 7 6 6 5 5 5 6 6 5 5 5 6 6 6 5 4 4 6 8 8 6 4 3 2 1 1 1 2 3 2 1
2 3 4 5 6 7 8 8 7 6 6 7 7 6 5 5 5 4 5 6 6 6 6 6 6 6 5 4 5 6 7 7 7 7 6 4 2 1 1 1 2 1 1
1 2 4 5 6 6 6 7 7 6 6 7 6 5 4 4 4 3 4 6 6 6 6 5 4 4 4 5 5 6 6 6 6 6 6 4 3 2 2 1 1 1 1
2 2 3 4 5 5 4 4 5 6 6 6 5 4 4 4 4 4 5 6 5 4 4 4 3 3 3 4 4 5 5 5 4 4 4 4 3 4 4 3 2 2 1
3 2 2 2 4 4 3 2 4 6 7 6 4 3 4 4 5 5 6 6 5 4 3 3 3 3 3 3 3 4 4 4 4 4 4 4 4 6 6 5 4 4 3
3 3 1 1 4 6 6 4 4 6 7 6 3 2 4 5 5 6 7 7 6 5 4 3 3 3 3 3 3 3 3 4 4 4 5 5 6 6 6 6 5 5 5
3 3 2 1 3 7 8 6 6 6 6 6 4 3 3 4 5 7 9 11 10 9 7 5 4 4 4 3 3 3 3 4 5 5 5 6 7 6 6 5 5 5 6
2 3 2 1 3 5 6 6 6 6 5 5 5 4 3 3 5 8 11 13 14 13 10 7 6 6 5 5 4 3 4 5 6 6 6 7 8 8 7 6 5 5 5
3 4 4 3 3 4 5 6 7 7 6 7 7 6 5 4 6 9 12 13 14 14 13 9 7 7 7 6 4 3 4 6 6 6 6 7 7 8 9 8 8 6 5
4 5 5 5 5 4 4 6 8 8 8 9 10 10 8 7 7 8 10 12 13 14 13 11 9 8 7 6 4 3 5 6 6 6 6 6 7 7 7 8 9 9 8
5 5 5 5 4 4 5 7 8 8 7 8 11 12 11 9 7 5 6 8 11 13 14 13 11 9 8 6 4 3 4 6 6 6 6 6 6 5 5 6 8 9 10
5 4 4 4 4 5 6 8 8 7 6 6 8 10 10 9 7 4 4 5 8 11 13 13 12 10 8 5 3 2 3 5 5 6 6 6 6 3 2 3 6 8 8
5 5 5 5 6 5 6 8 9 7 6 6 7 7 8 9 8 6 5 6 8 9 11 11 11 10 8 5 2 1 1 2 3 4 5 6 4 2 0 1 3 4 5
7 7 7 7 7 6 7 9 10 9 8 7 7 6 7 8 8 8 7 7 9 9 10 9 9 10 10 8 4 2 1 0 1 1 3 3 2 1 1 1 1 2 3
7 8 8 8 8 7 8 10 12 11 9 8 8 7 7 6 8 8 7 8 9 10 10 9 8 9 10 9 7 4 3 2 1 1 1 1 1 1 2 2 2 2 3
5 6 8 9 9 9 9 10 12 11 10 9 9 8 7 6 7 7 7 7 7 8 8 8 8 8 8 7 5 4 4 3 3 2 1 1 1 2 3 3 3 4 4
3 4 7 10 11 10 9 10 11 11 10 10 10 9 7 6 6 7 6 6 5 6 6 6 7 8 7 5 2 1 2 2 2 3 3 3 2 3 3 3 4 5 5

GEFSMW_con_probscp_378.txt.gz
Probability
6 6 6 4 4 5 6 8 11 13 15 18 17 14 11 11 11 11 10 8 9 10 10 10 8 6 6 7 7 6 5 6 7 8 9 10 10 11 12 13 13 10 9
6 6 5 2 3 6 7 9 11 14 16 18 18 17 14 12 12 12 11 9 8 8 7 7 8 8 8 9 9 8 7 8 9 10 10 10 10 10 11 11 10 8 7
6 5 4 2 3 6 9 10 12 14 15 16 17 18 16 14 13 13 12 10 9 8 7 7 8 9 9 10 11 10 10 11 13 12 11 10 10 9 9 8 7 6 5
5 5 6 5 5 7 9 12 14 14 13 13 15 16 15 12 12 12 12 12 11 10 10 10 10 10 10 11 12 12 14 15 16 16 14 12 12 10 7 6 6 6 6
6 8 9 9 9 8 8 11 14 15 13 13 14 14 12 10 11 12 11 11 12 11 11 11 12 12 11 11 12 13 14 15 16 18 18 17 15 12 8 6 7 8 8
9 10 11 11 11 10 9 11 15 17 17 16 15 13 10 10 12 12 11 10 10 11 12 12 13 15 15 13 13 13 13 13 15 18 20 19 18 16 12 9 9 10 10
10 10 10 11 13 14 15 16 19 21 21 19 17 15 13 13 13 13 12 11 10 12 13 12 14 17 18 17 15 13 12 13 15 18 19 18 17 17 15 12 9 8 7
8 7 7 9 13 16 19 21 24 25 25 24 23 21 20 17 16 14 13 12 12 13 13 14 15 18 19 19 18 16 14 15 16 17 16 16 14 14 14 13 9 5 3
5 5 5 6 10 14 18 20 23 26 28 27 26 26 25 23 20 17 15 14 16 16 14 14 15 16 18 19 19 18 17 18 18 17 16 15 13 12 13 13 10 6 4
5 4 4 4 6 10 14 18 22 26 28 28 27 26 26 26 24 21 19 19 19 17 15 14 14 14 14 15 15 16 17 19 20 18 16 15 14 13 12 12 11 10 9
4 4 3 3 5 8 13 19 24 27 28 28 27 26 26 27 26 24 23 22 18 15 12 12 12 12 11 11 11 12 14 17 19 18 16 15 13 13 13 12 11 11 11
3 3 4 5 7 9 12 18 24 28 29 29 28 27 27 27 27 26 25 22 17 13 11 11 11 10 9 9 10 12 14 16 17 17 17 15 14 15 16 14 13 12 11
6 6 8 10 11 11 12 16 22 27 30 30 30 29 28 27 25 24 25 23 19 15 13 12 11 9 9 11 13 14 15 16 15 16 16 16 17 18 18 17 16 15 12
11 12 14 15 15 15 13 15 20 25 28 30 30 29 27 25 22 22 23 21 19 18 16 14 13 11 11 13 15 15 15 15 14 14 14 14 15 16 16 16 16 16 15
14 15 17 18 19 19 17 16 20 24 27 27 26 25 23 21 20 20 20 19 18 17 16 15 12 11 11 12 13 13 13 13 13 13 12 10 9 9 9 10 12 14 16
14 15 17 19 19 20 19 20 23 27 28 26 24 20 19 18 18 18 18 18 17 16 15 14 10 8 7 7 7 8 9 11 12 12 11 9 7 6 6 6 7 9 11
14 16 18 18 18 19 22 24 27 31 30 26 22 19 17 16 17 16 16 16 15 14 14 12 10 7 5 4 3 4 6 10 13 13 11 10 8 7 7 6 6 7 8
20 20 21 20 19 21 24 26 27 29 28 24 21 19 18 17 15 15 16 15 14 13 12 11 10 10 9 5 2 2 6 11 14 13 12 11 10 9 9 9 9 9 10
27 27 26 24 24 25 26 25 24 24 23 21 20 18 18 17 16 15 15 15 14 13 11 10 12 14 14 9 2 3 8 13 15 15 13 12 11 10 9 9 10 10 11
30 30 29 27 26 26 24 21 20 19 19 19 17 17 16 16 15 13 13 13 13 12 10 10 12 16 16 10 3 4 11 16 17 16 14 11 9 8 7 8 9 10 10
28 29 29 27 25 22 20 18 16 15 15 16 16 16 15 13 11 11 12 12 12 12 11 11 12 14 13 9 3 4 9 14 16 16 13 11 7 5 4 5 7 8 8
24 25 25 24 22 20 18 17 15 13 13 15 16 16 14 11 10 11 13 12 11 11 11 11 12 11 11 9 5 3 3 7 12 13 11 8 5 2 1 2 3 4 4
21 20 20 21 20 19 17 17 16 16 16 16 15 14 13 11 11 13 14 11 9 9 10 11 11 11 10 10 7 3 1 2 5 8 7 4 2 1 0 1 1 1 3
18 18 18 20 21 20 18 17 17 19 19 18 16 15 14 13 14 15 14 11 9 10 10 11 12 11 11 11 10 8 4 2 2 4 4 4 2 1 1 2 1 2 4
16 18 20 22 21 20 18 17 18 19 20 21 19 16 15 15 15 15 13 10 9 9 10 11 10 9 9 10 10 9 8 5 3 3 5 6 5 5 5 5 5 5 5
16 18 22 24 22 20 19 18 18 19 20 22 20 16 14 15 15 15 12 8 7 6 7 8 7 6 6 7 8 8 8 6 3 4 6 7 8 8 9 9 9 7 6

GEFSMW_con_probscp_384.txt.gz
Probability
9 7 8 10 13 18 26 28 26 25 26 27 26 24 23 23 22 22 20 17 14 14 15 16 16 16 17 17 17 17 14 10 9 11 12 12 14 14 13 14 16 14 13
11 9 9 9 11 17 24 27 27 27 27 27 26 25 23 22 23 24 24 20 16 16 17 19 19 19 19 18 18 18 16 13 11 10 11 11 10 11 11 13 15 16 16
14 14 13 10 10 15 22 26 30 33 31 28 26 24 23 23 23 26 28 24 18 17 19 21 22 22 20 17 16 17 17 15 13 11 11 11 10 9 11 12 15 18 18
17 17 17 14 12 13 18 26 36 41 39 35 30 26 24 24 25 29 31 29 23 20 20 21 23 22 19 16 14 14 15 14 13 13 13 15 14 11 10 10 13 16 17
17 18 18 17 15 14 19 30 43 50 48 43 38 32 27 26 28 32 35 36 33 28 25 24 25 24 20 17 15 15 16 15 14 14 16 18 16 12 9 8 9 13 15
16 16 17 18 18 19 24 36 49 55 53 48 44 39 34 31 32 34 38 41 40 38 33 31 32 31 26 22 20 21 20 19 17 15 15 16 14 11 8 7 8 11 12
16 16 16 18 20 25 31 41 53 59 56 51 48 46 41 38 36 36 38 42 42 43 41 36 35 35 31 27 26 27 25 23 19 15 12 12 13 11 9 8 9 10 11
13 15 17 17 21 29 37 45 54 59 56 51 49 48 45 42 41 39 37 38 40 42 42 38 33 31 29 28 29 30 29 27 22 15 12 11 12 12 11 11 11 11 10
11 13 14 15 19 28 37 46 52 54 53 50 48 46 46 45 43 41 36 34 38 40 39 34 29 26 25 27 29 30 29 28 23 17 13 13 14 13 13 14 14 12 10
10 12 13 14 17 23 33 42 48 49 48 47 46 46 46 46 45 43 38 35 37 37 33 29 26 24 23 25 26 25 24 22 20 16 14 15 15 15 14 15 14 13 12
12 14 16 17 18 20 27 37 43 45 45 45 45 46 47 48 47 45 42 39 37 33 28 26 25 22 20 20 20 19 18 18 16 15 15 15 16 16 15 14 12 12 12
15 18 22 24 22 21 25 34 41 44 45 44 44 45 48 49 48 46 43 40 35 29 26 26 25 21 18 17 17 17 17 17 16 16 16 16 17 17 15 13 12 12 12
19 22 27 29 28 28 30 35 40 42 43 43 41 41 44 46 45 42 40 37 33 27 25 25 24 22 19 18 18 18 18 17 17 17 17 17 18 18 16 15 14 14 14
21 24 31 36 39 40 40 41 41 40 40 41 39 38 40 42 42 40 37 33 28 24 22 22 21 21 19 18 18 18 18 19 19 17 17 18 18 18 17 16 16 16 15
24 29 36 41 44 45 45 46 43 39 39 40 38 37 40 42 41 39 35 31 26 22 21 19 18 18 17 16 17 17 17 19 21 19 17 17 17 17 15 14 14 13 13
28 33 40 44 44 45 47 48 45 40 39 39 38 37 39 41 40 37 33 30 27 25 23 19 17 16 14 13 13 14 15 19 22 22 19 16 14 14 13 11 10 8 8
30 35 42 45 45 46 48 47 44 42 40 40 39 38 38 38 38 35 32 30 28 27 25 22 18 16 13 9 8 8 12 18 21 22 21 17 13 13 14 13 9 7 6
35 38 42 44 46 48 50 47 44 43 41 39 39 38 37 36 34 32 30 29 28 27 25 22 19 17 13 8 4 5 10 17 19 19 20 20 15 12 14 15 13 11 10
43 43 42 43 47 50 51 47 43 42 40 37 37 36 34 32 30 29 28 28 27 26 24 21 19 18 15 8 3 4 9 15 17 16 16 18 17 13 13 15 15 14 14
47 46 44 44 47 51 51 45 39 38 37 34 34 33 31 29 27 26 26 25 24 23 21 20 19 18 15 9 3 3 9 14 17 17 15 13 12 10 8 10 12 13 13
44 44 45 45 48 51 49 43 38 36 34 32 31 30 29 26 24 23 22 19 18 18 18 18 19 19 16 9 3 2 6 11 16 17 15 10 6 4 3 4 7 8 7
37 40 43 46 48 49 48 44 41 38 34 32 31 30 27 22 19 18 16 14 14 14 14 16 19 19 16 9 4 2 2 7 12 14 12 7 2 0 0 1 2 2 2
33 36 40 44 47 47 46 43 41 39 36 35 34 31 25 19 16 14 13 11 11 10 10 11 14 16 15 10 5 1 0 2 6 8 7 3 1 0 0 0 0 0 0
33 35 38 41 44 45 43 42 41 39 37 36 35 30 24 18 16 15 12 10 8 7 6 7 9 12 14 11 7 5 3 2 3 3 3 2 1 1 1 1 1 1 1
35 37 39 40 42 43 41 41 41 39 37 35 33 28 22 18 17 15 12 10 7 5 5 6 7 9 10 10 8 7 6 4 3 3 5 6 5 5 4 4 4 4 4
36 39 40 39 41 41 39 40 41 39 36 34 31 25 20 17 16 15 13 10 8 5 4 5 6 7 8 7 6 7 7 4 3 5 8 9 8 7 6 6 6 6 6